Location: Blangy-Tronville
(49.8790°N, 2.4226°E)
Time: 00:40:11
(UTC+00:00)

Cosmos 1763 Rocket - Pass Details

Date: 18 November 2025
Orbit: 728 x 774 km, 74.0° (Epoch: 04 December)

Event Time Altitude Azimuth Distance (km) Brightness Sun altitude
Rises 16:44:49 0° 337° (NNW) 3,244 6.8 -6.9°
Reaches altitude 10° 16:47:14 10° 341° (NNW) 2,307 6.0 -7.3°
Maximum altitude 16:52:26 64° 63° (ENE) 840 3.5 -8.1°
Drops below altitude 10° 16:57:32 10° 145° (SE) 2,261 5.8 -8.8°
Sets 16:59:53 0° 148° (SSE) 3,174 6.6 -9.2°
